| time (UTC) | temp F | wind direction | speed knots | gust knots | rain 1hr in | rain 24hr in | rain mn in | humidity % | barometer mb |
| 20260505005205 | 48 | 256 | 29.5 | 33.9 | 0.00 | 0.00 | 0.00 | 50 | 1027.1 |
| 20260505004702 | 50 | 245 | 20.9 | 33.9 | 0.00 | 0.00 | 0.00 | 48 | 1027.1 |
| 20260505004158 | 50 | 238 | 27.8 | 35.6 | 0.00 | 0.00 | 0.00 | 47 | 1027.0 |
| 20260505003655 | 51 | 241 | 23.5 | 34.8 | 0.00 | 0.00 | 0.00 | 47 | 1027.3 |
| 20260505003153 | 50 | 237 | 17.4 | 36.5 | 0.00 | 0.00 | 0.00 | 47 | 1026.9 |
| 20260505002649 | 52 | 263 | 26.9 | 34.8 | 0.00 | 0.00 | 0.00 | 43 | 1027.3 |
| 20260505002147 | 56 | 277 | 7.8 | 13.0 | 0.00 | 0.00 | 0.00 | 30 | 1027.1 |
| 20260505001644 | 56 | 254 | 7.0 | 19.1 | 0.00 | 0.00 | 0.00 | 30 | 1027.0 |
| 20260505001141 | 57 | 288 | 4.3 | 13.9 | 0.00 | 0.00 | 0.00 | 30 | 1027.3 |
| 20260505000638 | 55 | 342 | 3.5 | 10.4 | 0.00 | 0.00 | 0.00 | 29 | 1027.1 |
| 20260505000137 | 56 | 297 | 11.3 | 20.0 | 0.00 | 0.00 | 0.00 | 29 | 1027.4 |
| 20260504235632 | 55 | 347 | 20.9 | 20.9 | 0.00 | 0.00 | 0.00 | 30 | 1027.3 |
| 20260504235129 | 55 | 301 | 7.0 | 13.0 | 0.00 | 0.00 | 0.00 | 28 | 1027.3 |
| 20260504234626 | 54 | 279 | 4.3 | 19.1 | 0.00 | 0.00 | 0.00 | 30 | 1027.7 |
| 20260504234123 | 55 | 289 | 11.3 | 16.5 | 0.00 | 0.00 | 0.00 | 30 | 1027.3 |
| 20260504233619 | 55 | 276 | 16.5 | 21.7 | 0.00 | 0.00 | 0.00 | 29 | 1027.5 |
| 20260504233115 | 55 | 282 | 12.2 | 16.5 | 0.00 | 0.00 | 0.00 | 29 | 1027.5 |
| 20260504232613 | 55 | 295 | 7.8 | 19.1 | 0.00 | 0.00 | 0.00 | 29 | 1027.5 |
| 20260504232110 | 53 | 301 | 7.0 | 20.9 | 0.00 | 0.00 | 0.00 | 33 | 1027.4 |
| 20260504231606 | 53 | 308 | 6.1 | 14.8 | 0.00 | 0.00 | 0.00 | 32 | 1027.4 |
| 20260504231102 | 53 | 312 | 17.4 | 17.4 | 0.00 | 0.00 | 0.00 | 32 | 1027.4 |
| 20260504230559 | 53 | 308 | 7.0 | 15.6 | 0.00 | 0.00 | 0.00 | 32 | 1027.7 |
| 20260504230058 | 53 | 311 | 19.1 | 21.7 | 0.00 | 0.00 | 0.00 | 32 | 1027.4 |
| 20260504225555 | 54 | 260 | 4.3 | 16.5 | 0.00 | 0.00 | 0.00 | 31 | 1027.7 |
| 20260504225052 | 54 | 263 | 7.0 | 21.7 | 0.00 | 0.00 | 0.00 | 32 | 1027.3 |
| 20260504224548 | 53 | 334 | 9.6 | 15.6 | 0.00 | 0.00 | 0.00 | 33 | 1027.7 |
| 20260504224046 | 54 | 297 | 7.8 | 16.5 | 0.00 | 0.00 | 0.00 | 30 | 1027.5 |
| 20260504223543 | 55 | 341 | 4.3 | 13.9 | 0.00 | 0.00 | 0.00 | 32 | 1027.7 |
| 20260504223038 | 53 | 319 | 7.8 | 23.5 | 0.00 | 0.00 | 0.00 | 32 | 1027.7 |
| 20260504222535 | 53 | 327 | 8.7 | 23.5 | 0.00 | 0.00 | 0.00 | 33 | 1027.5 |
| 20260504222033 | 53 | 345 | 7.0 | 18.2 | 0.00 | 0.00 | 0.00 | 33 | 1027.4 |
| 20260504221530 | 53 | 317 | 19.1 | 20.0 | 0.00 | 0.00 | 0.00 | 34 | 1027.5 |
| 20260504221026 | 52 | 306 | 9.6 | 20.9 | 0.00 | 0.00 | 0.00 | 34 | 1027.5 |
| 20260504220523 | 54 | 285 | 6.1 | 20.0 | 0.00 | 0.00 | 0.00 | 33 | 1027.5 |
| 20260504220020 | 55 | 318 | 4.3 | 16.5 | 0.00 | 0.00 | 0.00 | 31 | 1027.8 |
| 20260504215516 | 55 | 296 | 7.8 | 24.3 | 0.00 | 0.00 | 0.00 | 33 | 1027.5 |
| 20260504215014 | 55 | 309 | 10.4 | 21.7 | 0.00 | 0.00 | 0.00 | 34 | 1027.7 |
| 20260504214510 | 55 | 329 | 13.0 | 25.2 | 0.00 | 0.00 | 0.00 | 33 | 1028.1 |
| 20260504214006 | 53 | 289 | 10.4 | 30.4 | 0.00 | 0.00 | 0.00 | 32 | 1028.2 |
| 20260504213502 | 55 | 309 | 22.6 | 26.9 | 0.00 | 0.00 | 0.00 | 32 | 1028.1 |
| 20260504213000 | 56 | 309 | 11.3 | 18.2 | 0.00 | 0.00 | 0.00 | 33 | 1027.9 |
| 20260504212456 | 56 | 333 | 7.8 | 26.1 | 0.00 | 0.00 | 0.00 | 28 | 1028.1 |
| 20260504211953 | 55 | 301 | 23.5 | 26.9 | 0.00 | 0.00 | 0.00 | 30 | 1028.2 |
| 20260504211450 | 56 | 307 | 10.4 | 20.9 | 0.00 | 0.00 | 0.00 | 30 | 1028.2 |
| 20260504210947 | 55 | 328 | 12.2 | 20.0 | 0.00 | 0.00 | 0.00 | 29 | 1028.5 |
| 20260504210444 | 56 | 339 | 13.0 | 20.9 | 0.00 | 0.00 | 0.00 | 30 | 1028.1 |
| 20260504205941 | 57 | 304 | 10.4 | 11.3 | 0.00 | 0.00 | 0.00 | 30 | 1028.5 |
| 20260504205438 | 55 | 300 | 15.6 | 25.2 | 0.00 | 0.00 | 0.00 | 28 | 1028.6 |
| 20260504204937 | 54 | 337 | 9.6 | 16.5 | 0.00 | 0.00 | 0.00 | 31 | 1028.5 |
| 20260504204434 | 54 | 306 | 7.0 | 13.9 | 0.00 | 0.00 | 0.00 | 30 | 1028.2 |
| 20260504203934 | 54 | 338 | 12.2 | 15.6 | 0.00 | 0.00 | 0.00 | 30 | 1028.5 |
| 20260504203431 | 54 | 336 | 13.0 | 16.5 | 0.00 | 0.00 | 0.00 | 30 | 1028.5 |
| 20260504202927 | 56 | 341 | 7.8 | 20.9 | 0.00 | 0.00 | 0.00 | 27 | 1028.3 |
| 20260504202423 | 56 | 332 | 5.2 | 17.4 | 0.00 | 0.00 | 0.00 | 27 | 1028.7 |
| 20260504201920 | 54 | 333 | 9.6 | 13.9 | 0.00 | 0.00 | 0.00 | 28 | 1028.9 |
| 20260504201418 | 55 | 337 | 10.4 | 20.0 | 0.00 | 0.00 | 0.00 | 29 | 1028.7 |
| 20260504200915 | 53 | 347 | 14.8 | 26.1 | 0.00 | 0.00 | 0.00 | 31 | 1028.3 |
| 20260504200411 | 54 | 329 | 4.3 | 17.4 | 0.00 | 0.00 | 0.00 | 28 | 1029.0 |
| 20260504195908 | 52 | 18 | 14.8 | 20.9 | 0.00 | 0.00 | 0.00 | 30 | 1028.6 |
| 20260504195404 | 52 | 340 | 12.2 | 24.3 | 0.00 | 0.00 | 0.00 | 31 | 1028.9 |
| 20260504194901 | 53 | 316 | 4.3 | 20.0 | 0.00 | 0.00 | 0.00 | 32 | 1028.9 |
| 20260504194356 | 53 | 346 | 20.0 | 22.6 | 0.00 | 0.00 | 0.00 | 32 | 1028.6 |
| 20260504193852 | 53 | 334 | 20.9 | 21.7 | 0.00 | 0.00 | 0.00 | 32 | 1029.1 |
| 20260504193350 | 52 | 353 | 20.0 | 21.7 | 0.00 | 0.00 | 0.00 | 34 | 1028.9 |
| 20260504192849 | 52 | 113 | 4.3 | 7.8 | 0.00 | 0.00 | 0.00 | 33 | 1029.0 |
| 20260504192346 | 51 | 128 | 6.1 | 14.8 | 0.00 | 0.00 | 0.00 | 34 | 1029.1 |
| 20260504191844 | 52 | 154 | 6.1 | 10.4 | 0.00 | 0.00 | 0.00 | 33 | 1029.3 |
| 20260504191342 | 51 | 185 | 3.5 | 7.8 | 0.00 | 0.00 | 0.00 | 31 | 1029.3 |
| 20260504190837 | 50 | 125 | 4.3 | 7.8 | 0.00 | 0.00 | 0.00 | 33 | 1029.4 |
| 20260504190333 | 50 | 160 | 4.3 | 10.4 | 0.00 | 0.00 | 0.00 | 34 | 1029.1 |
| 20260504185830 | 49 | 173 | 6.1 | 9.6 | 0.00 | 0.00 | 0.00 | 35 | 1029.5 |
| 20260504185327 | 49 | 137 | 2.6 | 7.8 | 0.00 | 0.00 | 0.00 | 36 | 1029.7 |
| 20260504184823 | 48 | 164 | 0.9 | 5.2 | 0.00 | 0.00 | 0.00 | 38 | 1029.7 |
| 20260504184319 | 48 | 158 | 6.1 | 14.8 | 0.00 | 0.00 | 0.00 | 34 | 1029.7 |
| 20260504183815 | 47 | 85 | 16.5 | 26.1 | 0.00 | 0.00 | 0.00 | 34 | 1029.8 |
| 20260504183312 | 45 | 166 | 5.2 | 11.3 | 0.00 | 0.00 | 0.00 | 42 | 1030.3 |
| 20260504182810 | 47 | 237 | 8.7 | 23.5 | 0.00 | 0.00 | 0.00 | 38 | 1029.8 |
| 20260504182307 | 48 | 234 | 20.9 | 20.9 | 0.00 | 0.00 | 0.00 | 34 | 1029.7 |
| 20260504181804 | 50 | 286 | 7.0 | 14.8 | 0.00 | 0.00 | 0.00 | 32 | 1029.7 |
| 20260504181301 | 50 | 308 | 4.3 | 12.2 | 0.00 | 0.00 | 0.00 | 29 | 1029.8 |
| 20260504180801 | 51 | 274 | 4.3 | 7.8 | 0.00 | 0.00 | 0.00 | 32 | 1029.8 |
| 20260504180259 | 51 | 279 | 4.3 | 7.8 | 0.00 | 0.00 | 0.00 | 31 | 1029.7 |
| 20260504175756 | 51 | 307 | 6.1 | 15.6 | 0.00 | 0.00 | 0.00 | 30 | 1029.8 |
| 20260504175253 | 53 | 257 | 0.0 | 3.5 | 0.00 | 0.00 | 0.00 | 28 | 1029.8 |
| 20260504174751 | 54 | 291 | 4.3 | 10.4 | 0.00 | 0.00 | 0.00 | 30 | 1029.9 |
| 20260504174249 | 51 | 27 | 7.8 | 13.0 | 0.00 | 0.00 | 0.00 | 33 | 1029.8 |
| 20260504173745 | 53 | 341 | 2.6 | 13.0 | 0.00 | 0.00 | 0.00 | 34 | 1029.7 |
| 20260504173242 | 53 | 354 | 9.6 | 15.6 | 0.00 | 0.00 | 0.00 | 35 | 1029.8 |
| 20260504172739 | 52 | 196 | 2.6 | 9.6 | 0.00 | 0.00 | 0.00 | 31 | 1029.9 |
| 20260504172235 | 52 | 339 | 3.5 | 6.1 | 0.00 | 0.00 | 0.00 | 31 | 1029.9 |
| 20260504171731 | 52 | 318 | 6.1 | 11.3 | 0.00 | 0.00 | 0.00 | 32 | 1029.8 |
| 20260504171228 | 52 | 334 | 4.3 | 6.1 | 0.00 | 0.00 | 0.00 | 33 | 1029.9 |
| 20260504170725 | 51 | 301 | 0.9 | 11.3 | 0.00 | 0.00 | 0.00 | 35 | 1030.1 |
| 20260504170223 | 52 | 317 | 3.5 | 10.4 | 0.00 | 0.00 | 0.00 | 34 | 1030.2 |
| 20260504160141 | 49 | 307 | 7.8 | 12.2 | 0.00 | 0.00 | 0.00 | 39 | 1029.9 |
| 20260504151108 | 46 | 247 | 8.7 | 13.0 | 0.00 | 0.00 | 0.00 | 40 | 1030.5 |
| 20260504150606 | 46 | 253 | 11.3 | 11.3 | 0.00 | 0.00 | 0.00 | 39 | 1030.2 |
| 20260504141032 | 43 | 244 | 9.6 | 13.9 | 0.00 | 0.00 | 0.00 | 39 | 1030.2 |
| 20260504140528 | 43 | 252 | 13.9 | 15.6 | 0.00 | 0.00 | 0.00 | 39 | 1030.5 |
| 20260504130453 | 42 | 251 | 10.4 | 18.2 | 0.00 | 0.00 | 0.00 | 37 | 1030.2 |
| 20260504110335 | 46 | 86 | 0.9 | 2.6 | 0.00 | 0.00 | 0.00 | 29 | 1029.8 |
| 20260504100257 | 48 | 132 | 4.3 | 5.2 | 0.00 | 0.00 | 0.00 | 33 | 1030.1 |
| 20260504081650 | 48 | 114 | 4.3 | 5.2 | 0.00 | 0.00 | 0.00 | 32 | 1030.9 |
| 20260504081147 | 48 | 109 | 5.2 | 6.1 | 0.00 | 0.00 | 0.00 | 32 | 1030.6 |
| 20260504080643 | 48 | 97 | 6.1 | 6.1 | 0.00 | 0.00 | 0.00 | 32 | 1031.1 |
| 20260504080140 | 48 | 99 | 4.3 | 5.2 | 0.00 | 0.00 | 0.00 | 32 | 1030.9 |
| 20260504070108 | 48 | 92 | 7.8 | 7.8 | 0.00 | 0.00 | 0.00 | 30 | 1031.5 |
| 20260504050456 | 47 | 38 | 14.8 | 15.6 | 0.00 | 0.00 | 0.00 | 35 | 1031.9 |
| 20260504045953 | 47 | 35 | 11.3 | 14.8 | 0.00 | 0.00 | 0.00 | 36 | 1032.1 |
| 20260504045449 | 47 | 48 | 11.3 | 14.8 | 0.00 | 0.00 | 0.00 | 36 | 1032.1 |
| 20260504044945 | 47 | 44 | 13.0 | 15.6 | 0.00 | 0.00 | 0.00 | 37 | 1032.1 |
| 20260504044443 | 47 | 36 | 12.2 | 17.4 | 0.00 | 0.00 | 0.00 | 37 | 1032.1 |
| 20260504043940 | 47 | 43 | 15.6 | 18.2 | 0.00 | 0.00 | 0.00 | 37 | 1031.9 |
| 20260504043437 | 47 | 42 | 12.2 | 17.4 | 0.00 | 0.00 | 0.00 | 36 | 1031.9 |
| 20260504042934 | 47 | 44 | 15.6 | 17.4 | 0.00 | 0.00 | 0.00 | 35 | 1031.8 |
| 20260504042431 | 47 | 33 | 13.0 | 15.6 | 0.00 | 0.00 | 0.00 | 33 | 1032.2 |
| 20260504041927 | 48 | 30 | 13.9 | 15.6 | 0.00 | 0.00 | 0.00 | 29 | 1032.2 |
| 20260504041424 | 47 | 30 | 13.0 | 16.5 | 0.00 | 0.00 | 0.00 | 28 | 1032.1 |
| 20260504040920 | 48 | 28 | 12.2 | 19.1 | 0.00 | 0.00 | 0.00 | 27 | 1032.1 |
| 20260504040418 | 48 | 30 | 14.8 | 18.2 | 0.00 | 0.00 | 0.00 | 26 | 1032.2 |
| 20260504035913 | 48 | 22 | 13.9 | 17.4 | 0.00 | 0.00 | 0.00 | 26 | 1032.1 |
| 20260504035411 | 48 | 23 | 15.6 | 17.4 | 0.00 | 0.00 | 0.00 | 26 | 1032.1 |
| 20260504034908 | 48 | 21 | 13.9 | 17.4 | 0.00 | 0.00 | 0.00 | 25 | 1032.2 |
| 20260504034405 | 49 | 23 | 15.6 | 18.2 | 0.00 | 0.00 | 0.00 | 23 | 1031.9 |
| 20260504033902 | 49 | 21 | 16.5 | 20.9 | 0.00 | 0.00 | 0.00 | 23 | 1031.8 |
| 20260504033400 | 49 | 22 | 14.8 | 18.2 | 0.00 | 0.00 | 0.00 | 22 | 1031.8 |
| 20260504032856 | 49 | 20 | 18.2 | 20.9 | 0.00 | 0.00 | 0.00 | 21 | 1031.9 |
| 20260504032353 | 49 | 15 | 18.2 | 21.7 | 0.00 | 0.00 | 0.00 | 22 | 1031.9 |
| 20260504031850 | 49 | 16 | 16.5 | 20.0 | 0.00 | 0.00 | 0.00 | 22 | 1032.1 |
| 20260504031347 | 50 | 18 | 15.6 | 20.9 | 0.00 | 0.00 | 0.00 | 22 | 1031.8 |
| 20260504030843 | 50 | 14 | 15.6 | 20.9 | 0.00 | 0.00 | 0.00 | 23 | 1031.9 |
| 20260504030341 | 49 | 11 | 15.6 | 20.9 | 0.00 | 0.00 | 0.00 | 23 | 1031.8 |
| 20260504025837 | 50 | 15 | 20.0 | 21.7 | 0.00 | 0.00 | 0.00 | 23 | 1031.9 |
| 20260504025334 | 50 | 5 | 13.9 | 21.7 | 0.00 | 0.00 | 0.00 | 25 | 1031.8 |
| 20260504024831 | 50 | 4 | 14.8 | 20.0 | 0.00 | 0.00 | 0.00 | 24 | 1031.8 |
| 20260504024327 | 50 | 16 | 17.4 | 19.1 | 0.00 | 0.00 | 0.00 | 24 | 1031.9 |
| 20260504023824 | 50 | 3 | 13.0 | 18.2 | 0.00 | 0.00 | 0.00 | 25 | 1031.9 |
| 20260504023321 | 50 | 3 | 13.0 | 18.2 | 0.00 | 0.00 | 0.00 | 25 | 1031.8 |
| 20260504022816 | 50 | 341 | 13.9 | 18.2 | 0.00 | 0.00 | 0.00 | 24 | 1031.7 |
| 20260504022314 | 50 | 359 | 12.2 | 17.4 | 0.00 | 0.00 | 0.00 | 24 | 1032.1 |
| 20260504021809 | 50 | 0 | 13.9 | 20.0 | 0.00 | 0.00 | 0.00 | 24 | 1031.9 |
| 20260504021308 | 51 | 349 | 13.0 | 19.1 | 0.00 | 0.00 | 0.00 | 25 | 1031.9 |
| 20260504020759 | 51 | 345 | 13.0 | 20.0 | 0.00 | 0.00 | 0.00 | 25 | 1031.8 |
| 20260504020256 | 51 | 340 | 13.9 | 20.0 | 0.00 | 0.00 | 0.00 | 25 | 1032.1 |
| 20260504015752 | 51 | 342 | 17.4 | 20.0 | 0.00 | 0.00 | 0.00 | 27 | 1031.9 |
| 20260504015248 | 51 | 354 | 11.3 | 18.2 | 0.00 | 0.00 | 0.00 | 27 | 1031.9 |
| 20260504014744 | 51 | 337 | 13.9 | 15.6 | 0.00 | 0.00 | 0.00 | 27 | 1032.1 |
| 20260504014241 | 52 | 329 | 6.1 | 13.9 | 0.00 | 0.00 | 0.00 | 27 | 1031.9 |
| 20260504013738 | 52 | 331 | 11.3 | 18.2 | 0.00 | 0.00 | 0.00 | 26 | 1032.1 |
| 20260504013235 | 53 | 324 | 9.6 | 13.0 | 0.00 | 0.00 | 0.00 | 24 | 1032.1 |
| 20260504012732 | 54 | 329 | 6.1 | 13.0 | 0.00 | 0.00 | 0.00 | 23 | 1031.9 |
| 20260504012230 | 54 | 319 | 6.1 | 13.9 | 0.00 | 0.00 | 0.00 | 22 | 1032.3 |
| 20260504011727 | 54 | 304 | 10.4 | 14.8 | 0.00 | 0.00 | 0.00 | 21 | 1032.5 |
| 20260504011224 | 53 | 306 | 10.4 | 12.2 | 0.00 | 0.00 | 0.00 | 22 | 1032.5 |
| 20260504010720 | 54 | 306 | 5.2 | 16.5 | 0.00 | 0.00 | 0.00 | 22 | 1032.5 |
| 20260504010215 | 55 | 315 | 8.7 | 18.2 | 0.00 | 0.00 | 0.00 | 21 | 1032.6 |
| 20260504005712 | 55 | 299 | 4.3 | 13.0 | 0.00 | 0.00 | 0.00 | 21 | 1032.5 |